This is the latest recevied weather packets stored in our database for station/object NN5DX-12. If no packets are shown the sender has not sent any weather packets the latest 10 day(s).
| Time | Temp. | Humidity | Pressure | Rain* | Wind** | Luminosity | Snow |
|---|---|---|---|---|---|---|---|
| 1777835117 | 17.22° C | 19% | 1022.5 hPa | 0 mm | - | - | - |
| 1777834817 | 16.67° C | 20% | 1022.1 hPa | 0 mm | - | - | - |
| 1777834516 | 16.67° C | 20% | 1022.1 hPa | 0 mm | - | - | - |
| 1777834216 | 16.67° C | 19% | 1022.2 hPa | 0 mm | - | - | - |
| 1777833916 | 16.11° C | 21% | 1022.4 hPa | 0 mm | - | - | - |
| 1777833617 | 16.11° C | 21% | 1022.5 hPa | 0 mm | - | - | - |
| 1777833316 | 16.11° C | 21% | 1022.7 hPa | 0 mm | - | - | - |
| 1777833016 | 16.11° C | 20% | 1022.6 hPa | 0 mm | - | - | - |
| 1777832716 | 16.67° C | 20% | 1022.7 hPa | 0 mm | - | - | - |
| 1777832417 | 16.11° C | 22% | 1022.3 hPa | 0 mm | - | - | - |
| 1777832116 | 16.11° C | 22% | 1022.3 hPa | 0 mm | - | - | - |
| 1777831816 | 15.56° C | 23% | 1022.5 hPa | 0 mm | - | - | - |
| 1777831516 | 15° C | 23% | 1021.9 hPa | 0 mm | - | - | - |
| 1777831216 | 15° C | 24% | 1022 hPa | 0 mm | - | - | - |
| 1777830916 | 15° C | 22% | 1021.5 hPa | 0 mm | - | - | - |
| 1777830616 | 15° C | 23% | 1021.7 hPa | 0 mm | - | - | - |
| 1777830316 | 15° C | 24% | 1021.8 hPa | 0 mm | - | - | - |
| 1777830016 | 14.44° C | 22% | 1021.3 hPa | 0 mm | - | - | - |
| 1777829716 | 14.44° C | 24% | 1021.4 hPa | 0 mm | - | - | - |
| 1777829417 | 13.89° C | 24% | 1021.5 hPa | 0 mm | - | - | - |
| 1777829116 | 13.89° C | 24% | 1020.9 hPa | 0 mm | - | - | - |
| 1777828816 | 13.89° C | 26% | 1021.1 hPa | 0 mm | - | - | - |
| 1777828516 | 13.89° C | 24% | 1021.1 hPa | 0 mm | - | - | - |
| 1777828216 | 13.89° C | 25% | 1021.3 hPa | 0 mm | - | - | - |
| 1777827916 | 13.33° C | 27% | 1021.3 hPa | 0 mm | - | - | - |
* Rain latest hour (hover to see other rain measurements)
** Current wind speed in m/s (hover to see current wind gust speed)